sat.trackr.live / text

‹ back to catalog

LEMUR-2-CRIMBOREALIS

NORAD 69933 · 2026-156BS

PAYLOAD ACTIVE UNKNOWN

§ Identity

Operator
Country
US
Launch date
2026-07-07
Launch site
AFWTR
Launch vehicle
Mass (kg)
RCS (m²)

External: N2YO · Heavens-Above · Gunter

§ Orbital elements

Epoch: 2026-09-19T22:59:51.065088Z

Period
96.47 min
Inclination
97.7468°
Eccentricity
0.0007807
Mean motion
14.92716401 rev/d
Perigee alt
584.0 km
Apogee alt
594.9 km
Semi-major
6,967.6 km
B*
1.1402e-4
RAAN
162.2649°
Arg perigee
272.8857°
Mean anomaly
87.1469°
Rev number
1,113

§ Raw data

LEMUR-2-CRIMBOREALIS1 69933U 26156BS  26262.95822992  .00001121  00000+0  11402-3 0  99992 69933  97.7468 162.2649 0007807 272.8857  87.1469 14.92716401 11130

JSON: /api/v1/satellites/69933 · /tle

For live sub-satellite position, see the globe view (requires WebGL).

§ Visibility from observer

Set your observer location to see the next 7 days of passes ≥ 10°. The values pass through the URL so the page stays shareable.

No JS? Fill the form by hand. The geolocation button needs JavaScript.